Location: Azul
(36.7830°S, 59.8500°W)
Time: 21:58:56
(UTC-03:00)

RS-44 - Pass Details

Date: 18 September 2024
Orbit: 1174 x 1511 km, 82.5° (Epoch: 11 October)

Event Time Altitude Azimuth Distance (km) Brightness Sun altitude
Rises 03:54:08 0° 192° (SSW) 4,417 ? -35.6°
Reaches altitude 10° 03:56:54 10° 194° (SSW) 3,482 ? -35.1°
Enters shadow 04:02:43 47° 218° (SW) 1,840 ? -34.0°
